EW3511 Weather Reports


time (UTC)temp
C
wind
direction
speed
KPH
gust
KPH
rain 1hr
cm
rain 24hr
cm
rain mn
cm
humidity
%
barometer
mb
20260507085549 13 99 1.6 9.7 0.00 0.08 0.05 77 1012.4
20260507084552 13 179 3.2 14.5 0.00 0.08 0.05 75 1012.2
20260507083550 13 268 3.2 12.9 0.00 0.08 0.05 78 1012.3
20260507082551 12 1 3.2 9.7 0.00 0.08 0.05 83 1012.3
20260507081551 13 160 3.2 9.7 0.00 0.08 0.05 83 1012.1
20260507080551 12 169 1.6 4.8 0.00 0.08 0.05 87 1012.2
20260507075551 11 133 3.2 8.0 0.00 0.08 0.05 90 1012.3
20260507074553 11 169 3.2 4.8 0.00 0.08 0.05 92 1012.3
20260507073552 10 135 1.6 3.2 0.03 0.08 0.05 94 1012.3
20260507072553 10 101 1.6 3.2 0.03 0.08 0.05 95 1012.3
20260507071554 10 112 0.0 3.2 0.03 0.08 0.05 96 1012.0
20260507070554 10 187 1.6 4.8 0.03 0.08 0.05 96 1012.1
20260507065615 9 197 3.2 8.0 0.03 0.08 0.05 96 1012.1
20260507064554 9 182 1.6 8.0 0.03 0.08 0.05 95 1012.0
20260507063615 10 224 3.2 17.7 0.00 0.05 0.03 93 1011.9
20260507062556 10 221 3.2 9.7 0.00 0.05 0.03 92 1011.7
20260507061556 9 178 1.6 9.7 0.00 0.05 0.03 96 1011.7
20260507060556 9 133 0.0 1.6 0.00 0.05 0.03 98 1011.6
20260507055557 9 124 0.0 1.6 0.00 0.05 0.03 99 1011.5
20260507054557 9 148 0.0 3.2 0.00 0.05 0.03 99 1011.4
20260507053558 9 134 0.0 3.2 0.00 0.05 0.03 98 1011.4
20260507052600 8 156 0.0 1.6 0.00 0.05 0.03 99 1011.3
20260507051559 8 104 0.0 1.6 0.00 0.05 0.03 99 1011.1
20260507050559 8 129 0.0 3.2 0.00 0.05 0.03 99 1011.1
20260507045600 8 111 0.0 1.6 0.00 0.05 0.03 99 1010.9
20260507044559 8 0.0 0.0 0.00 0.05 0.03 99 1010.6
20260507043532 8 0.0 1.6 0.00 0.05 0.03 99 1010.6
20260507042533 8 0.0 1.6 0.00 0.05 0.03 99 1010.5
20260507041533 8 0.0 0.0 0.00 0.05 0.03 99 1010.3
20260507040535 8 0.0 0.0 0.00 0.05 0.03 99 1010.3
20260507035553 8 0.0 0.0 0.00 0.05 0.03 99 1010.3
20260507034535 8 0.0 0.0 0.00 0.05 0.03 99 1010.3
20260507033554 8 0.0 0.0 0.00 0.05 0.03 99 1010.4
20260507032535 8 0.0 0.0 0.00 0.05 0.03 99 1010.3
20260507031535 8 121 0.0 1.6 0.00 0.05 0.03 99 1010.4
20260507030536 8 114 0.0 1.6 0.00 0.05 0.03 99 1010.4
20260507025556 8 117 0.0 1.6 0.00 0.05 0.03 99 1010.4
20260507024556 8 112 0.0 3.2 0.00 0.05 0.03 99 1010.2
20260507023538 8 107 0.0 3.2 0.00 0.05 0.03 99 1010.2
20260507022537 8 100 0.0 3.2 0.00 0.05 0.03 99 1010.0
20260507021538 8 160 0.0 3.2 0.00 0.05 0.03 99 1010.0
20260507020538 8 132 0.0 1.6 0.00 0.05 0.03 99 1009.9
20260507015539 8 131 0.0 3.2 0.00 0.05 0.03 98 1009.8
20260507014539 8 160 0.0 3.2 0.00 0.05 0.03 98 1009.8
20260507013600 8 143 0.0 3.2 0.00 0.05 0.03 96 1009.8
20260507012541 9 126 1.6 4.8 0.03 0.05 0.03 92 1009.7
20260507011540 9 199 3.2 9.7 0.03 0.05 0.03 92 1009.6
20260507010541 8 184 3.2 8.0 0.03 0.05 0.03 95 1009.7
20260507005542 9 135 1.6 3.2 0.03 0.05 0.03 95 1009.6
20260507004542 9 137 1.6 3.2 0.03 0.05 0.03 94 1009.5
20260507003543 9 174 1.6 8.0 0.03 0.05 0.03 93 1009.5
20260507002543 9 184 3.2 8.0 0.00 0.03 0.00 91 1009.4
20260507001543 9 134 1.6 8.0 0.00 0.03 0.00 91 1009.4
20260507000543 9 83 3.2 9.7 0.00 0.03 0.00 94 1009.4
20260506235543 9 102 1.6 4.8 0.00 0.03 0.00 93 1009.5
20260506234545 9 193 4.8 12.9 0.00 0.03 0.00 92 1009.6
20260506233544 9 143 1.6 4.8 0.00 0.03 0.00 93 1009.4
20260506232545 9 208 3.2 9.7 0.00 0.03 0.00 92 1009.5
20260506231545 9 138 0.0 3.2 0.00 0.03 0.00 93 1009.5
20260506230546 9 146 1.6 8.0 0.00 0.03 0.00 92 1009.6
20260506225546 9 138 1.6 9.7 0.00 0.03 0.00 91 1009.5
20260506224548 9 158 1.6 8.0 0.00 0.03 0.00 92 1009.4
20260506223547 9 235 3.2 9.7 0.00 0.03 0.00 94 1009.4
20260506222547 9 142 1.6 8.0 0.00 0.03 0.00 96 1009.5
20260506221548 9 135 3.2 9.7 0.00 0.05 0.00 96 1009.4
20260506220548 9 193 1.6 9.7 0.00 0.05 0.00 96 1009.3
20260506215549 9 126 0.0 1.6 0.00 0.05 0.05 96 1009.3
20260506214550 9 147 1.6 4.8 0.00 0.05 0.05 96 1009.2
20260506213550 9 123 1.6 4.8 0.00 0.08 0.05 95 1009.2
20260506212550 9 97 0.0 1.6 0.00 0.08 0.05 95 1009.0
20260506211550 9 102 1.6 8.0 0.00 0.08 0.05 94 1009.0
20260506210551 9 139 1.6 8.0 0.00 0.10 0.05 94 1009.2
20260506205551 9 181 3.2 9.7 0.00 0.10 0.05 94 1009.2
20260506204552 10 171 1.6 12.9 0.00 0.10 0.05 93 1009.0
20260506203552 9 199 3.2 9.7 0.00 0.10 0.05 94 1008.9
20260506202552 9 165 1.6 4.8 0.00 0.10 0.05 94 1008.6
20260506201613 10 171 1.6 4.8 0.00 0.10 0.05 93 1008.6
20260506200554 10 162 1.6 8.0 0.00 0.10 0.05 92 1008.8
20260506195553 10 220 3.2 8.0 0.00 0.10 0.05 93 1008.6
20260506194554 10 125 3.2 11.3 0.00 0.10 0.05 93 1008.4
20260506193554 10 177 4.8 12.9 0.00 0.10 0.05 93 1008.3
20260506192555 10 197 3.2 9.7 0.00 0.10 0.05 94 1008.1
20260506191555 10 184 3.2 9.7 0.00 0.10 0.05 94 1008.0
20260506190555 10 170 1.6 8.0 0.00 0.10 0.05 93 1007.8
20260506185557 10 128 1.6 9.7 0.00 0.10 0.05 93 1007.6
20260506184556 10 292 4.8 16.1 0.00 0.10 0.05 94 1007.4
20260506183637 10 153 1.6 8.0 0.00 0.10 0.05 95 1007.3
20260506182618 10 199 3.2 11.3 0.03 0.10 0.05 95 1007.1
20260506181558 10 140 1.6 4.8 0.03 0.10 0.05 96 1007.0
20260506180558 10 100 1.6 9.7 0.03 0.10 0.05 95 1006.9
20260506175559 10 4 4.8 17.7 0.03 0.10 0.05 95 1006.8
20260506174620 11 268 6.4 20.9 0.03 0.10 0.05 98 1006.7
20260506173620 11 209 3.2 11.3 0.03 0.10 0.05 99 1006.2
20260506172600 11 222 3.2 11.3 0.00 0.08 0.03 99 1005.7
20260506171601 11 71 0.0 1.6 0.00 0.08 0.03 99 1005.5
20260506170601 11 137 0.0 1.6 0.00 0.08 0.03 99 1005.1
20260506165601 11 145 1.6 4.8 0.00 0.08 0.03 99 1004.9
20260506164603 11 183 1.6 4.8 0.00 0.08 0.03 99 1004.9